Previsão horária em Abbadia San Salvatore

Hoje, 23 Janeiro, Sábado

Tempo Temperatura Precipitação Vento Pressão Humidade
00:00 0°C° 0 mm 7 m/s 658 mmHg 83%
01:00 +1°C° 0 mm 6 m/s 658 mmHg 81%
02:00 -1°C° 0 mm 6 m/s 657 mmHg 81%
03:00 -1°C° 0 mm 7 m/s 657 mmHg 80%
04:00 -1°C° 0 mm 7 m/s 656 mmHg 79%
05:00 -1°C° 0 mm 6 m/s 656 mmHg 80%
06:00 -1°C° 0 mm 5 m/s 656 mmHg 81%
07:00 -1°C° 0 mm 4 m/s 656 mmHg 82%
08:00 0°C° 0.1 mm 5 m/s 656 mmHg 79%
09:00 -1°C° 0.1 mm 6 m/s 657 mmHg 77%
10:00 -1°C° 0.1 mm 6 m/s 657 mmHg 74%
11:00 0°C° 0.1 mm 7 m/s 657 mmHg 72%
12:00 0°C° 0.1 mm 8 m/s 657 mmHg 69%
13:00 +1°C° 0.1 mm 9 m/s 658 mmHg 67%
14:00 0°C° 0.1 mm 8 m/s 657 mmHg 69%
15:00 0°C° 0.1 mm 8 m/s 657 mmHg 71%
16:00 0°C° 0.1 mm 7 m/s 657 mmHg 73%
17:00 0°C° 0.2 mm 7 m/s 657 mmHg 75%
18:00 -1°C° 0.2 mm 6 m/s 657 mmHg 77%
19:00 -1°C° 0.2 mm 6 m/s 657 mmHg 80%
20:00 -1°C° 0.5 mm 6 m/s 657 mmHg 81%
21:00 -1°C° 0.5 mm 5 m/s 657 mmHg 82%
22:00 -1°C° 0.5 mm 5 m/s 657 mmHg 83%
23:00 -1°C° 0.1 mm 5 m/s 657 mmHg 82%

Amanhã, 24 Janeiro, Domingo

Tempo Temperatura Precipitação Vento Pressão Humidade
00:00 -2°C° 0.1 mm 6 m/s 657 mmHg 80%
01:00 -2°C° 0.1 mm 7 m/s 657 mmHg 78%
02:00 -2°C° 0 mm 5 m/s 657 mmHg 77%
03:00 -2°C° 0 mm 4 m/s 657 mmHg 75%
04:00 -1°C° 0 mm 3 m/s 657 mmHg 74%
05:00 -2°C° 0 mm 3 m/s 657 mmHg 76%
06:00 -2°C° 0 mm 2 m/s 657 mmHg 78%
07:00 -2°C° 0 mm 2 m/s 657 mmHg 79%
08:00 -1°C° 0 mm 2 m/s 657 mmHg 80%
09:00 +1°C° 0 mm 2 m/s 657 mmHg 81%
10:00 +3°C° 0 mm 1 m/s 657 mmHg 82%
11:00 +2°C° 0.4 mm 2 m/s 657 mmHg 83%
12:00 +2°C° 0.4 mm 2 m/s 657 mmHg 85%
13:00 +2°C° 0.4 mm 2 m/s 656 mmHg 87%
14:00 +2°C° 0.1 mm 2 m/s 657 mmHg 84%
15:00 +2°C° 0.1 mm 2 m/s 657 mmHg 81%
16:00 +2°C° 0.1 mm 3 m/s 657 mmHg 79%
17:00 +2°C° 0.1 mm 2 m/s 657 mmHg 82%
18:00 +1°C° 0.1 mm 2 m/s 658 mmHg 85%
19:00 +1°C° 0.1 mm 1 m/s 658 mmHg 89%
20:00 0°C° 0.1 mm 1 m/s 658 mmHg 90%
21:00 0°C° 0.1 mm 1 m/s 658 mmHg 91%
22:00 -1°C° 0.1 mm 1 m/s 658 mmHg 92%
23:00 -1°C° 0 mm 1 m/s 659 mmHg 90%

Depois de amanhã, 25 Janeiro, Segunda-feira

Tempo Temperatura Precipitação Vento Pressão Humidade
00:00 -2°C° 0 mm 2 m/s 659 mmHg 88%
01:00 -2°C° 0 mm 2 m/s 659 mmHg 86%
02:00 -2°C° 0.5 mm 3 m/s 659 mmHg 85%
03:00 -3°C° 0.5 mm 4 m/s 658 mmHg 83%
04:00 -3°C° 0.5 mm 4 m/s 658 mmHg 82%
05:00 -3°C° 0.2 mm 4 m/s 658 mmHg 83%
06:00 -3°C° 0.2 mm 4 m/s 658 mmHg 85%
07:00 -4°C° 0.2 mm 4 m/s 658 mmHg 86%
08:00 -3°C° 0.2 mm 4 m/s 659 mmHg 85%
09:00 -2°C° 0.2 mm 3 m/s 660 mmHg 85%
10:00 -1°C° 0.2 mm 3 m/s 661 mmHg 84%
11:00 0°C° 0.1 mm 3 m/s 662 mmHg 78%
12:00 0°C° 0.1 mm 3 m/s 663 mmHg 71%
13:00 0°C° 0.1 mm 4 m/s 664 mmHg 65%
14:00 +1°C° 0.3 mm 3 m/s 665 mmHg 68%
15:00 0°C° 0.3 mm 3 m/s 665 mmHg 70%
16:00 +1°C° 0.3 mm 2 m/s 665 mmHg 73%
17:00 +1°C° 0.1 mm 1 m/s 666 mmHg 76%
18:00 0°C° 0.1 mm 1 m/s 666 mmHg 79%
19:00 -3°C° 0.1 mm 0 m/s 666 mmHg 83%
20:00 -3°C° 0 mm 0 m/s 666 mmHg 82%
21:00 -3°C° 0 mm 0 m/s 667 mmHg 81%
22:00 -3°C° 0 mm 0 m/s 667 mmHg 81%
23:00 -4°C° 0 mm 0 m/s 667 mmHg 79%

26 Janeiro, Terça-feira

Tempo Temperatura Precipitação Vento Pressão Humidade
00:00 -4°C° 0 mm 0 m/s 667 mmHg 78%
01:00 -4°C° 0 mm 0 m/s 667 mmHg 76%
02:00 -4°C° 0 mm 0 m/s 667 mmHg 75%
03:00 -4°C° 0 mm 0 m/s 667 mmHg 74%
04:00 -4°C° 0 mm 0 m/s 667 mmHg 73%
05:00 -4°C° 0 mm 0 m/s 667 mmHg 73%
06:00 -4°C° 0 mm 0 m/s 668 mmHg 72%
07:00 -4°C° 0 mm 0 m/s 668 mmHg 71%
08:00 -3°C° 0 mm 0 m/s 669 mmHg 69%
09:00 0°C° 0 mm 1 m/s 670 mmHg 67%
10:00 +1°C° 0 mm 1 m/s 670 mmHg 65%
11:00 +2°C° 0 mm 1 m/s 671 mmHg 61%
12:00 +3°C° 0 mm 1 m/s 671 mmHg 57%
13:00 +4°C° 0 mm 1 m/s 672 mmHg 54%
14:00 +4°C° 0 mm 1 m/s 672 mmHg 58%
15:00 +4°C° 0 mm 1 m/s 671 mmHg 62%
16:00 +3°C° 0 mm 1 m/s 671 mmHg 66%
17:00 +2°C° 0 mm 1 m/s 671 mmHg 71%
18:00 0°C° 0 mm 1 m/s 670 mmHg 77%
19:00 -2°C° 0 mm 1 m/s 670 mmHg 83%
20:00 -2°C° 0 mm 1 m/s 670 mmHg 82%
21:00 -2°C° 0 mm 1 m/s 670 mmHg 81%
22:00 -3°C° 0 mm 0 m/s 671 mmHg 80%
23:00 -2°C° 0 mm 1 m/s 670 mmHg 78%

27 Janeiro, Quarta-feira

Tempo Temperatura Precipitação Vento Pressão Humidade
00:00 -2°C° 0 mm 1 m/s 670 mmHg 76%
01:00 -2°C° 0 mm 1 m/s 670 mmHg 74%
02:00 -2°C° 0 mm 1 m/s 670 mmHg 73%
03:00 -2°C° 0 mm 1 m/s 670 mmHg 72%
04:00 -4°C° 0 mm 0 m/s 669 mmHg 72%
05:00 -3°C° 0 mm 1 m/s 669 mmHg 69%
06:00 -3°C° 0 mm 1 m/s 669 mmHg 67%
07:00 -3°C° 0 mm 1 m/s 669 mmHg 65%
08:00 -2°C° 0 mm 1 m/s 669 mmHg 61%
09:00 0°C° 0 mm 1 m/s 670 mmHg 58%
10:00 +1°C° 0 mm 0 m/s 670 mmHg 54%
11:00 +2°C° 0 mm 1 m/s 670 mmHg 55%
12:00 +3°C° 0 mm 1 m/s 671 mmHg 55%
13:00 +4°C° 0 mm 1 m/s 671 mmHg 55%
14:00 +4°C° 0 mm 1 m/s 671 mmHg 60%
15:00 +4°C° 0 mm 1 m/s 671 mmHg 65%
16:00 +4°C° 0 mm 1 m/s 671 mmHg 69%
17:00 +2°C° 0 mm 1 m/s 670 mmHg 73%
18:00 +1°C° 0 mm 1 m/s 670 mmHg 78%
19:00 -1°C° 0 mm 1 m/s 670 mmHg 82%
20:00 -1°C° 0 mm 1 m/s 670 mmHg 83%
21:00 -1°C° 0 mm 1 m/s 671 mmHg 84%
22:00 -3°C° 0 mm 0 m/s 671 mmHg 85%
23:00 -3°C° 0 mm 0 m/s 671 mmHg 86%

28 Janeiro, Quinta-feira

Tempo Temperatura Precipitação Vento Pressão Humidade
00:00 -3°C° 0 mm 0 m/s 671 mmHg 87%
01:00 -3°C° 0 mm 0 m/s 671 mmHg 88%
02:00 -2°C° 0 mm 1 m/s 671 mmHg 88%
03:00 -2°C° 0 mm 1 m/s 671 mmHg 89%
04:00 -2°C° 0 mm 1 m/s 671 mmHg 89%
05:00 -2°C° 0 mm 1 m/s 671 mmHg 88%
06:00 -2°C° 0 mm 1 m/s 671 mmHg 88%
07:00 -2°C° 0 mm 1 m/s 671 mmHg 88%
08:00 -1°C° 0 mm 1 m/s 671 mmHg 84%
09:00 0°C° 0 mm 1 m/s 672 mmHg 80%
10:00 +2°C° 0 mm 1 m/s 672 mmHg 77%
11:00 +3°C° 0 mm 1 m/s 672 mmHg 75%
12:00 +3°C° 0 mm 2 m/s 673 mmHg 74%
13:00 +4°C° 0 mm 2 m/s 673 mmHg 72%
14:00 +3°C° 0 mm 2 m/s 672 mmHg 76%
15:00 +3°C° 0 mm 2 m/s 672 mmHg 81%
16:00 +3°C° 0 mm 2 m/s 671 mmHg 85%
17:00 +2°C° 0 mm 2 m/s 671 mmHg 88%
18:00 +2°C° 0 mm 2 m/s 670 mmHg 90%
19:00 +1°C° 0 mm 2 m/s 670 mmHg 93%
Mostrar mais